User: anonymous   Login
Location: Unspecified
(0.0000°N, 0.0000°E)
Time: 10:02:25
(UTC+00:00)
Language:

PCSat - Orbit

View from above orbital plane
View from above orbital plane
View from above satellite
View from above satellite

Ground track
Ground track

The orbit data is extracted from the following two-line orbital elements,

1 26931U 01043C   18108.92608897 -.00000024 +00000-0 +22524-4 0  9992
2 26931 067.0532 022.3211 0007056 281.8675 078.1634 14.30501150864009
Epoch (UTC): 18 April 2018 22:13:34
Eccentricity: 0.0007056
inclination: 67.0532°
perigee height: 785 km
apogee height: 795 km
right ascension of ascending node: 22.3211°
argument of perigee: 281.8675°
revolutions per day: 14.30501150
mean anomaly at epoch: 78.1634°
orbit number at epoch: 86400

The dashed part of the orbit path shows where the satellite is in the earth's shadow,  

DLR